Location: DARK SKY Beskydy - Park tmavé oblohy, www.darkskybeskydy.cz
(49.4926°N, 18.5016°E)
Time: 10:49:56
(UTC+02:00)

BlueWalker 3 - Pass Details

Date: 24 June 2024
Orbit: 480 x 491 km, 53.2° (Epoch: 23 July)

Event Time Altitude Azimuth Distance (km) Brightness Sun altitude
Rises 22:52:16 0° 277° (W) 2,540 6.0 -12.7°
Reaches altitude 10° 22:54:30 10° 284° (WNW) 1,659 5.2 -12.8°
Maximum altitude 22:58:07 45° 359° (N) 661 3.0 -13.1°
Drops below altitude 10° 23:01:43 10° 73° (ENE) 1,656 4.5 -13.3°
Sets 23:03:57 0° 80° (E) 2,536 5.4 -13.5°
